Palacios, TX

8:01 PM CDT on October 19, 2017 (GMT -0500)
Palacios Municipal

Weather History for KPSX - December, 2011

Change the Weather History Date:

Tuesday, December 13, 2011

  Actual Average Record
Temperature  
Mean Temperature 68 °F -  
Max Temperature 78 °F 64 °F 79 °F (1950)
Min Temperature 59 °F 46 °F 22 °F (1989)
Cooling Degree Days 4    
Growing Degree Days 18 (Base 50)    
Moisture  
Dew Point 66 °F    
Average Humidity 95    
Maximum Humidity 100    
Minimum Humidity 74    
Precipitation  
Precipitation 0.00 in - - ()
Sea Level Pressure  
Sea Level Pressure 30.18 in    
Wind  
Wind Speed 12 mph (East)    
Max Wind Speed 21 mph    
Max Gust Speed 28 mph    
Visibility 8 miles    
Events Rain    
Averages and records for this station are not official NWS values.
T = Trace of Precipitation, MM = Missing Value Source: NWS Daily Summary

Daily Weather History Graph

Daily Weather History Graph

Search for Another Location

Airport or City:

Trip Planner

Search our weather history database for the weather conditions in past years. The results will help you decide how hot, cold, wet, or windy it might be!

Date:

Astronomy

Dec. 13, 2011 Rise Set
Actual Time 7:09 AM CST 5:29 PM CST
Civil Twilight 6:43 AM CST 5:55 PM CST
Nautical Twilight 6:13 AM CST 6:24 PM CST
Astronomical Twilight 5:44 AM CST 6:53 PM CST
Moon 8:35 PM CST (12/13) 9:27 AM CST (12/13)
Length of Visible Light 11h 12m
Length of Day
10h 20m
Waning Gibbous, 90% of the Moon is Illuminated
Dec 13
Waning Gibbous
Dec 17
Last Quarter
Dec 24
New
Jan 1
First Quarter
Jan 9
Full

Hourly Weather History & Observations

Time (CST) Temp. Dew Point Humidity Pressure Visibility Wind Dir Wind Speed Gust Speed Precip Events Conditions
12:23 AM 60.8 °F 60.8 °F 100% 30.23 in 7.0 mi ENE 10.4 mph - N/A   Overcast
12:45 AM 59.0 °F 59.0 °F 100% 30.23 in 6.0 mi ENE 8.1 mph - N/A   Overcast
12:53 AM 60.1 °F 60.1 °F 100% 30.23 in 6.0 mi ENE 10.4 mph - N/A   Overcast
1:02 AM 60.8 °F 60.8 °F 100% 30.23 in 6.0 mi ENE 9.2 mph - N/A   Overcast
1:17 AM 59.0 °F 59.0 °F 100% 30.22 in 6.0 mi ENE 9.2 mph - N/A   Overcast
1:53 AM 60.1 °F 60.1 °F 100% 30.22 in 6.0 mi ENE 10.4 mph - N/A   Overcast
2:44 AM 60.8 °F 60.8 °F 100% 30.21 in 6.0 mi ENE 10.4 mph - N/A   Overcast
2:50 AM 60.8 °F 60.8 °F 100% 30.20 in 6.0 mi East 9.2 mph - N/A   Overcast
2:51 AM 60.1 °F 60.1 °F 100% 30.20 in 6.0 mi East 9.2 mph - N/A   Overcast
3:53 AM 60.1 °F 60.1 °F 100% 30.19 in 5.0 mi East 9.2 mph - N/A   Overcast
4:16 AM 62.6 °F 62.6 °F 100% 30.20 in 5.0 mi East 10.4 mph - N/A   Overcast
4:53 AM 63.0 °F 63.0 °F 100% 30.19 in 4.0 mi East 9.2 mph - N/A   Overcast
5:22 AM 64.4 °F 64.4 °F 100% 30.19 in 2.5 mi East 11.5 mph - N/A   Overcast
5:48 AM 64.4 °F 64.4 °F 100% 30.19 in 4.0 mi ENE 11.5 mph - 0.00 in Rain Light Rain
5:53 AM 64.0 °F 64.0 °F 100% 30.20 in 4.0 mi East 8.1 mph - 0.00 in   Overcast
6:53 AM 64.0 °F 64.0 °F 100% 30.20 in 3.0 mi East 12.7 mph - 0.00 in   Overcast
7:38 AM 64.4 °F 64.4 °F 100% 30.20 in 2.5 mi East 11.5 mph - N/A   Overcast
7:50 AM 64.4 °F 64.4 °F 100% 30.21 in 3.0 mi East 12.7 mph - 0.00 in   Overcast
7:53 AM 64.9 °F 64.9 °F 100% 30.21 in 4.0 mi East 12.7 mph - 0.00 in   Overcast
8:17 AM 64.4 °F 64.4 °F 100% 30.22 in 4.0 mi East 12.7 mph - N/A   Overcast
8:53 AM 66.0 °F 66.0 °F 100% 30.22 in 5.0 mi East 11.5 mph - N/A   Overcast
9:27 AM 66.2 °F 66.2 °F 100% 30.23 in 6.0 mi East 12.7 mph - N/A   Overcast
10:53 AM 72.0 °F 69.1 °F 91% 30.22 in 10.0 mi ESE 18.4 mph - N/A   Overcast
11:28 AM 73.4 °F 69.8 °F 88% 30.21 in 10.0 mi ESE 15.0 mph - N/A   Overcast
11:53 AM 75.9 °F 70.0 °F 82% 30.20 in 10.0 mi SE 20.7 mph 25.3 mph N/A   Overcast
12:16 PM 78.8 °F 69.8 °F 74% 30.19 in 10.0 mi SE 20.7 mph 27.6 mph N/A   Overcast
12:53 PM 75.2 °F 69.8 °F 83% 30.18 in 10.0 mi SE 17.3 mph 25.3 mph N/A   Overcast
1:08 PM 75.2 °F 69.8 °F 83% 30.17 in 10.0 mi ESE 18.4 mph - N/A   Overcast
1:53 PM 75.0 °F 70.0 °F 84% 30.16 in 10.0 mi SE 17.3 mph - N/A   Overcast
2:12 PM 73.4 °F 69.8 °F 88% 30.16 in 10.0 mi SE 17.3 mph - N/A   Overcast
2:36 PM 73.4 °F 69.8 °F 88% 30.15 in 10.0 mi SE 16.1 mph 23.0 mph N/A   Overcast
2:53 PM 73.9 °F 70.0 °F 87% 30.16 in 10.0 mi SE 16.1 mph 21.9 mph N/A   Overcast
3:22 PM 75.2 °F 69.8 °F 83% 30.15 in 10.0 mi SE 16.1 mph - N/A   Overcast
3:46 PM 73.4 °F 69.8 °F 88% 30.15 in 10.0 mi SE 17.3 mph - N/A   Overcast
3:53 PM 73.9 °F 70.0 °F 87% 30.14 in 10.0 mi ESE 17.3 mph - N/A   Overcast
4:40 PM 71.6 °F 69.8 °F 94% 30.15 in 10.0 mi ESE 16.1 mph - N/A   Overcast
4:48 PM 71.6 °F 69.8 °F 94% 30.15 in 10.0 mi ESE 16.1 mph - N/A   Overcast
4:53 PM 72.0 °F 69.1 °F 91% 30.15 in 10.0 mi ESE 15.0 mph - N/A   Overcast
5:53 PM 70.0 °F 68.0 °F 93% 30.15 in 10.0 mi ESE 16.1 mph - N/A   Scattered Clouds
6:53 PM 66.0 °F 66.0 °F 100% 30.15 in 9.0 mi ESE 15.0 mph - N/A   Partly Cloudy
7:08 PM 66.2 °F 66.2 °F 100% 30.15 in 9.0 mi ESE 12.7 mph - N/A   Mostly Cloudy
7:53 PM 66.0 °F 66.0 °F 100% 30.15 in 9.0 mi East 11.5 mph - N/A   Overcast
8:31 PM 66.2 °F 66.2 °F 100% 30.15 in 9.0 mi ESE 11.5 mph - N/A   Overcast
8:53 PM 66.9 °F 66.9 °F 100% 30.15 in 10.0 mi East 12.7 mph - N/A   Overcast
9:53 PM 66.9 °F 66.9 °F 100% 30.15 in 10.0 mi East 12.7 mph - N/A   Overcast
10:53 PM 66.9 °F 66.0 °F 97% 30.14 in 10.0 mi ESE 11.5 mph - N/A   Mostly Cloudy
11:53 PM 68.0 °F 66.9 °F 96% 30.13 in 10.0 mi ESE 15.0 mph - N/A   Overcast